Regional Weather Roundup
Issued by NWS

Home | Current Version | Previous Version | Graphics & Text | Print | Product List | Glossary On
Versions: 1 2 3 4 5 6 7 8 9 10 11 12 13 14 15 16 17 18 19 20 21 22 23 24 25 26 27 28 29 30 31 32 33 34 35 36 37 38 39 40 41 42 43 44 45 46 47 48 49 50
000
ASUS45 KBOU 300310
RWRCO

WEATHER ROUNDUP FOR COLORADO
NATIONAL WEATHER SERVICE DENVER/BOULDER CO
900 PM MDT WED JUL 29 2015

NOTE: "FAIR" INDICATES FEW OR NO CLOUDS BELOW 12000 FEET WITH NO
SIGNIFICANT WEATHER AND/OR OBSTRUCTIONS TO VISIBILITY.

COZ001>005-013-030-031-300400-
...NORTHWEST COLORADO...

CITY           SKY/WX    TMP DP  RH WIND       PRES   REMARKS
CRAIG          PTCLDY    62  27  26 SW5       30.31R
HAYDEN         PTCLDY    70  19  14 NE5       30.34S
MEEKER         PTCLDY    67  23  19 E7        30.32R
MOUNT WERNER   NOT AVBL
STEAMBOAT SPGS PTCLDY    64  35  34 E3        30.36S
WALDEN         CLEAR     59  27  29 NW7       30.46R
$$

COZ006>008-011-300400-
...WEST CENTRAL VALLEYS...

CITY           SKY/WX    TMP DP  RH WIND       PRES   REMARKS
GRAND JUNCTION MOCLDY    74  26  16 E3        30.16R
MONTROSE       MOCLDY    74  37  26 SE3       30.26R
EAGLE          MOCLDY    75  27  16 CALM      30.33R
RIFLE          MOCLDY    77  26  15 SW6       30.24R
DELTA          MOCLDY    83  22  10 CALM      30.19S
NUCLA          MOCLDY    79  23  12 E3        30.29R
$$

COZ017>023-064>068-300400-
...SOUTHWEST COLORADO...

CITY           SKY/WX    TMP DP  RH WIND       PRES   REMARKS
DURANGO        MOCLDY    67  48  50 CALM      30.35S
CORTEZ         CLEAR     68  45  43 SE5       30.27R
PAGOSA SPRINGS CLOUDY    64  47  53 N3        30.43F
TELLURIDE      MOCLDY    67  28  23 CALM      30.53S
WOLF CREEK PAS NOT AVBL
$$

COZ009-010-012-014-032>034-037-058>063-300400-
...CENTRAL COLORADO...

CITY           SKY/WX    TMP DP  RH WIND       PRES   REMARKS
ASPEN          MOCLDY    62  39  42 SW7       30.41R
BUENA VISTA    CLOUDY    61  50  66 NW5       30.50R
COPPER MTN     CLOUDY    55  27  33 W7        30.76R
BERTHOUD PASS  FAIR      43  32  65 SE3       30.81S
COTTONWOOD PAS CLOUDY    59  48  67 SE7       30.62R
GUNNISON       PTCLDY    66  36  32 CALM      30.42R
KREMMLING      PTCLDY    70  21  16 CALM      30.41S
LEADVILLE      MOCLDY    59  29  31 CALM      30.58R
MONARCH PASS   FOG       46  45  93 E6        30.85S VSB 1/4
SALIDA         NOT AVBL
SUNLIGHT       MOCLDY    59  25  27 NW3       30.68S
WILKERSON PASS CLOUDY    50  43  76 SW7       30.74S
$$

COZ069>075-300400-
...SAN LUIS VALLEY/SANGRE DE CRISTO MOUNTAINS...

CITY           SKY/WX    TMP DP  RH WIND       PRES   REMARKS
ALAMOSA        CLOUDY    60  50  69 S9        30.45S
LA VETA PASS   CLOUDY    48  43  81 MISG      30.63F THUNDER
SAGUACHE       MOCLDY    63  48  59 SE7       30.49R
$$

COZ035-036-038>040-300400-
...NORTHERN COLORADO FRONT RANGE...

CITY           SKY/WX    TMP DP  RH WIND       PRES   REMARKS
DENVER INTL AP MOCLDY    72  48  42 SE10      30.27R
DMNS CITY PARK   N/A     75  49  39 SE10G16   30.26R
AURORA         NOT AVBL
FRONT RANGE AP MOCLDY    72  46  40 SE9       30.29S
ERIE MUNI ARPT MOCLDY    73  51  46 S3        30.24S
BOULDER MUN AP MOCLDY    73  50  43 SE3       30.25R
CENTENNIAL     MOCLDY    71  50  47 S12       30.31R
BROOMFIELD     PTCLDY    73  54  49 VRB3      30.28
FORT COLLINS   PTCLDY    77  46  33 SE12      30.23S
LONGMONT       CLEAR     77  51  40 S3        30.25S
$$

COZ041-046-047-076>085-087-088-300400-
...PIKES PEAK/PALMER DIVIDE AND SOUTHERN FOOTHILLS...

CITY           SKY/WX    TMP DP  RH WIND       PRES   REMARKS
COLO. SPRINGS  MOCLDY    71  49  45 SE7       30.36F
A. F. ACADEMY  NOT AVBL
ELLICOTT       MOCLDY   N/A N/A N/A SE10      30.35S
FALCON         MOCLDY    65  47  51 S6        30.42R
FORT CARSON    NOT AVBL
LIMON          MOCLDY    65  49  56 SE8       30.33R
MONUMENT HILL  NOT AVBL
TRINIDAD       CLOUDY    63  54  72 SW12      30.35F
$$

COZ042>045-048>051-090-091-300400-
...NORTHEAST COLORADO...

CITY           SKY/WX    TMP DP  RH WIND       PRES   REMARKS
GREELEY ARPT   PTCLDY    73  48  40 SE9       30.23S
AKRON          CLEAR     68  45  43 SE14      30.28S
BURLINGTON     CLEAR     67  49  52 SE8       30.30R
WRAY           CLEAR     69  44  39 SE9       30.27R
STERLING       CLEAR     72  45  37 SE10      30.23R
HOLYOKE        CLEAR     64  52  63 S8        30.26R
FORT MORGAN    CLEAR     68  47  47 E9        30.26R
$$

COZ086-089-092>099-300400-
...SOUTHEAST COLORADO...

CITY           SKY/WX    TMP DP  RH WIND       PRES   REMARKS
PUEBLO         CLOUDY    78  51  38 S10       30.25R
LA JUNTA       MOCLDY    80  52  37 SE5       30.24S
LAMAR          MOCLDY    75  58  55 E9        30.23R
SPRINGFIELD      N/A     70  62  76 SE8       30.28R
$$


USA.gov is the U.S. government's official web portal to all federal, state and local government web resources and services.